Vansant, VA (24656)

4:16 AM EDT on September 03, 2015 (GMT -0400)
KM4HDM - Richlands, Virginia | | Change Station
CLOSE
Current Station
Personal Weather Station
Location: Richlands, VA
Elevation: 1972 ft
Nearby Weather Stations

Elev 1972 ft 37.09 °N, 81.83 °W | Updated 3 minutes ago

Clear
Clear
59.9 °F
Feels Like 59.9 °F
N
0.0
Wind Variable Wind from WNW

Today
High -- | Low -- °F
--% Chance of Precip.
Yesterday
High -- | Low -- °F
Precip. -- in
7:00 AM 7:54 PM
Waning Gibbous, 72% visible
Pressure 30.11 in
Visibility 10.0 miles
Clouds Clear
Dew Point 60 °F
Humidity 99%
Rainfall 0.00 in
Snow Depth Not available.
UV 0 out of 12
Pollen 9.00 out of 12
Air Quality Not available.
Flu Activity Not available.
METAR KJFZ 030755Z AUTO 00000KT 10SM CLR 20/00 A3011 RMK AO2 T01960004
Pressure 30.11 in
Visibility 10.0 miles
Clouds Clear
Dew Point 60 °F
Humidity 99%
Rainfall 0.00 in
Snow Depth Not available.
UV 0 out of 12
Pollen 9.00 out of 12
Air Quality Not available.
Flu Activity Not available.
METAR KJFZ 030755Z AUTO 00000KT 10SM CLR 20/00 A3011 RMK AO2 T01960004

10-Day Weather Forecast

×

Almanac

Astronomy

Sep. 03, 2015 Rise Set
Actual Time
Civil Twilight
Nautical Twilight
Astronomical Twilight
Moon
Length of Visible Light
Length of Day
Tomorrow will be .
, % of the Moon is Illuminated

Today's Extremes

State Highs State Lows

Community

WunderPhotos

Upload Photos

1,851,919 photos uploaded!

WunderBlogs® & News

Nearby

Air Quality

  Air Quality AQ Index Pollutant
Not available.

Snow Depth

Station Depth Elevation

Earthquake Activity

City Distance Mag. Time & Date
Minimum magnitude displayed is 2.5.

Coastal Water Temperatures

Place Temperature

Stations

Nearby Weather Stations

Station Location Temp. Windchill Dew Point Humidity Wind Precip. Elev Updated Type